Toms River, NJ

1:14 AM EDT on October 16, 2019 (GMT -0400)
Miller

Weather History for KMJX - August, 2019

Change the Weather History Date:

Monday, August 26, 2019

  Actual Average Record
Temperature  
Mean Temperature 65 °F -  
Max Temperature 73 °F 83 °F 95 °F (1968)
Min Temperature 55 °F 60 °F 45 °F (1960)
Growing Degree Days 15 (Base 50)    
Moisture  
Dew Point 60 °F    
Average Humidity 75    
Maximum Humidity 100    
Minimum Humidity 60    
Precipitation  
Precipitation 0.00 in - - ()
Sea Level Pressure  
Sea Level Pressure 30.19 in    
Wind  
Wind Speed 8 mph (NE)    
Max Wind Speed 16 mph    
Max Gust Speed 21 mph    
Visibility 10 miles    
Events      
Averages and records for this station are not official NWS values.
T = Trace of Precipitation, MM = Missing Value Source: NWS Daily Summary

Daily Weather History Graph

Daily Weather History Graph

Search for Another Location

Airport or City:

Astronomy

Aug. 26, 2019 Rise Set
Actual Time 6:19 AM EDT 7:38 PM EDT
Civil Twilight 5:50 AM EDT 8:06 PM EDT
Nautical Twilight 5:17 AM EDT 8:39 PM EDT
Astronomical Twilight 4:41 AM EDT 9:15 PM EDT
Moon 1:42 AM EDT (8/26) 4:58 PM EDT (8/26)
Length of Visible Light 14h 15m
Length of Day
13h 19m
Waning Crescent, 19% of the Moon is Illuminated
Aug 26
Waning Crescent
Aug 30
New
Sep 5
First Quarter
Sep 14
Full
Sep 21
Last Quarter

Hourly Weather History & Observations

Time (EDT) Temp. Dew Point Humidity Pressure Visibility Wind Dir Wind Speed Gust Speed Precip Events Conditions
12:56 AM 63.0 °F - N/A% 30.22 in 7.0 mi NE 8.1 mph - N/A   Clear
1:56 AM 64.0 °F - N/A% 30.19 in 10.0 mi ENE 9.2 mph - N/A   Clear
2:56 AM 63.0 °F - N/A% 30.19 in 10.0 mi ENE 8.1 mph - N/A   Clear
3:56 AM 61.0 °F - N/A% 30.20 in 10.0 mi NE 5.8 mph - N/A   Scattered Clouds
4:07 AM 60.8 °F - N/A% 30.19 in 10.0 mi NNE 4.6 mph - N/A   Mostly Cloudy
4:56 AM 63.0 °F - N/A% 30.20 in 10.0 mi NE 9.2 mph - N/A   Overcast
5:56 AM 62.1 °F - N/A% 30.20 in 10.0 mi North 6.9 mph - N/A   Overcast
6:35 AM 60.8 °F - N/A% 30.19 in 10.0 mi North 9.2 mph - N/A   Overcast
6:46 AM 60.8 °F - N/A% 30.19 in 10.0 mi North 9.2 mph - N/A   Overcast
6:56 AM 62.1 °F - N/A% 30.21 in 10.0 mi North 6.9 mph - N/A   Overcast
7:56 AM 64.9 °F - N/A% 30.22 in 10.0 mi NE 9.2 mph - N/A   Overcast
8:56 AM 66.0 °F 64.9 °F 96% 30.22 in 10.0 mi NE 16.1 mph - N/A   Overcast
9:56 AM 66.0 °F 60.1 °F 81% 30.22 in 10.0 mi ENE 11.5 mph - N/A   Overcast
10:56 AM 66.0 °F 59.0 °F 78% 30.23 in 10.0 mi ENE 10.4 mph - N/A   Overcast
11:56 AM 68.0 °F 57.9 °F 70% 30.24 in 10.0 mi NE 13.8 mph - N/A   Overcast
12:56 PM 71.1 °F 59.0 °F 66% 30.22 in 10.0 mi NNE 12.7 mph - N/A   Mostly Cloudy
1:11 PM 71.6 °F 57.2 °F 60% 30.21 in 10.0 mi NE 13.8 mph - N/A   Mostly Cloudy
1:56 PM 72.0 °F 57.9 °F 61% 30.21 in 10.0 mi NE 8.1 mph - N/A   Mostly Cloudy
2:56 PM 71.1 °F 57.9 °F 63% 30.20 in 10.0 mi NE 15.0 mph 20.7 mph N/A   Scattered Clouds
3:56 PM 73.0 °F 59.0 °F 61% 30.18 in 10.0 mi ENE 9.2 mph - N/A   Scattered Clouds
4:56 PM 72.0 °F 59.0 °F 64% 30.17 in 10.0 mi ENE 10.4 mph - N/A   Partly Cloudy
5:56 PM 70.0 °F 60.1 °F 71% 30.16 in 10.0 mi East 9.2 mph - N/A   Mostly Cloudy
6:07 PM 69.8 °F 60.8 °F 73% 30.15 in 10.0 mi ENE 9.2 mph - N/A   Mostly Cloudy
6:39 PM 68.0 °F 62.6 °F 83% 30.15 in 10.0 mi East 6.9 mph - N/A   Scattered Clouds
6:56 PM 68.0 °F 62.1 °F 81% 30.16 in 10.0 mi ENE 6.9 mph - N/A   Scattered Clouds
7:10 PM 68.0 °F 62.6 °F 83% 30.15 in 10.0 mi East 6.9 mph - N/A   Mostly Cloudy
7:19 PM 66.2 °F 62.6 °F 88% 30.14 in 10.0 mi ENE 5.8 mph - N/A   Scattered Clouds
7:56 PM 64.9 °F 64.9 °F 100% 30.15 in 10.0 mi ENE 5.8 mph - N/A   Partly Cloudy
8:56 PM 64.9 °F - N/A% 30.17 in 10.0 mi East 3.5 mph - N/A   Clear
9:56 PM 61.0 °F - N/A% 30.17 in 10.0 mi Calm Calm - N/A   Clear
10:56 PM 57.0 °F - N/A% 30.17 in 10.0 mi Calm Calm - N/A   Clear
11:56 PM 55.9 °F - N/A% 30.17 in 10.0 mi Calm Calm - N/A   Clear